Preview of NWS' New Version of Forecast
This preview is not operational and should not be used for support decisions.

Regional Weather Roundup (RWR)

Issued by National Weather Service (NWS)

                            
000
ASUS44 KOUN 211000
RWROK 

WEATHER ROUNDUP FOR OKLAHOMA
NATIONAL WEATHER SERVICE NORMAN OK
400 AM CST MON JAN 21 2019

NOTE: "FAIR" INDICATES FEW OR NO CLOUDS BELOW 12,000 FEET WITH NO
      SIGNIFICANT WEATHER AND/OR OBSTRUCTIONS TO VISIBILITY.

OKZ001>007-009>012-014-015-017-211100-
NORTHWEST OKLAHOMA AND THE PANHANDLE
  
CITY           SKY/WX    TMP DP  RH WIND       PRES   REMARKS
GAGE           CLOUDY    33  24  69 S23G32    29.85F WCI  21          
ENID/WOODRING  CLOUDY    32  28  86 SE14      30.02F WCI  22          
$$

OKZ016-021>023-033>039-044-045-211100-
SOUTHWEST OKLAHOMA
  
CITY           SKY/WX    TMP DP  RH WIND       PRES   REMARKS
LAWTON/REGL    CLOUDY    31  27  85 E6        30.04F WCI  25          
FREDERICK      CLOUDY    31  28  89 E10       29.98F WCI  22          
CLINTON        CLOUDY    33  26  75 S18       29.96F WCI  22          
HOBART         CLOUDY    36  27  69 S14       29.98F WCI  27          
$$

OKZ018>020-024>031-211100-
CENTRAL OKLAHOMA
  
CITY           SKY/WX    TMP DP  RH WIND       PRES   REMARKS
OKLAHOMA CITY  CLOUDY    32  24  72 S14       30.04F WCI  22          
OKC/WILEY POST CLOUDY    35  25  66 S20G26    30.03F WCI  24          
OKC/TINKER AFB CLOUDY    31  24  73 SE10      30.04F WCI  23          
STILLWATER     PTCLDY    33  22  63 SE8       30.08F WCI  26          
GUTHRIE        CLOUDY    32  24  72 SE8       30.05F WCI  25          
$$

OKZ008-013-054>072-211100-
NORTHEAST OKLAHOMA
  
CITY           SKY/WX    TMP DP  RH WIND       PRES   REMARKS
TULSA          CLOUDY    30  22  72 SE7       30.16F WCI  23          
TULSA/JONES    PTCLDY    30  22  72 SE5       30.16F WCI  25          
PONCA CITY     CLOUDY    31  22  69 SE13      30.07F WCI  21          
BARTLESVILLE   CLOUDY    25  20  81 CALM      30.17F                  
MUSKOGEE       PTCLDY    30  22  72 SE8       30.21F WCI  22          
$$

OKZ032-040>043-046>053-073>077-211100-
SOUTH CENTRAL/SOUTHEAST OKLAHOMA
  
CITY           SKY/WX    TMP DP  RH WIND       PRES   REMARKS
MCALESTER      MOCLDY    35  23  61 SE7       30.17F WCI  29          
$$